FW3016 Weather Reports


time (UTC)temp
C
wind
direction
speed
KPH
gust
KPH
rain 1hr
cm
rain 24hr
cm
rain mn
cm
humidity
%
barometer
mb
20260906191611 41 292 4.8 12.9 0.00 0.00 0.00 37 1010.7
20260906190057 42 188 6.4 11.3 0.00 0.00 0.00 33 1010.9
20260906184503 41 286 4.8 11.3 0.00 0.00 0.00 37 1011.0
20260906183102 41 136 6.4 11.3 0.00 0.00 0.00 35 1011.2
20260906181540 41 102 1.6 6.4 0.00 0.00 0.00 35 1011.6
20260906180027 40 183 1.6 8.0 0.00 0.00 0.00 37 1012.1
20260906174526 41 323 1.6 8.0 0.00 0.00 0.00 37 1012.3
20260906173024 39 263 3.2 6.4 0.00 0.00 0.00 41 1012.5
20260906171524 38 171 1.6 8.0 0.00 0.00 0.00 42 1012.7
20260906170115 40 229 1.6 6.4 0.00 0.00 0.00 40 1012.9
20260906164525 39 269 3.2 12.9 0.00 0.00 0.00 42 1013.1
20260906163029 38 198 1.6 9.7 0.00 0.00 0.00 43 1013.2
20260906161517 38 302 4.8 8.0 0.00 0.00 0.00 45 1013.2
20260906160039 38 301 0.0 8.0 0.00 0.00 0.00 46 1013.3
20260906154627 38 292 1.6 8.0 0.00 0.00 0.00 45 1013.2
20260906153037 37 288 1.6 8.0 0.00 0.00 0.00 48 1013.2
20260906151522 36 277 0.0 6.4 0.00 0.00 0.00 54 1013.1
20260906150024 35 280 1.6 4.8 0.00 0.00 0.00 56 1013.3
20260906144512 33 269 1.6 6.4 0.00 0.00 0.00 58 1013.2
20260906143041 32 196 0.0 4.8 0.00 0.00 0.00 62 1013.4
20260906141632 31 189 0.0 6.4 0.00 0.00 0.00 65 1013.2
20260906140051 29 243 1.6 4.8 0.00 0.00 0.00 70 1013.0
20260906134503 28 131 0.0 3.2 0.00 0.00 0.00 74 1013.1
20260906133103 27 126 1.6 4.8 0.00 0.00 0.00 75 1013.0
20260906131556 26 115 0.0 3.2 0.00 0.00 0.00 79 1013.0
20260906130104 25 115 0.0 3.2 0.00 0.00 0.00 85 1012.8
20260906124556 23 115 0.0 0.0 0.00 0.00 0.00 90 1012.8
20260906123050 23 115 0.0 0.0 0.00 0.00 0.00 88 1012.4
20260906121550 23 115 0.0 0.0 0.00 0.00 0.00 88 1012.3
20260906120046 23 115 0.0 0.0 0.00 0.00 0.00 87 1012.1
20260906114548 23 115 0.0 0.0 0.00 0.00 0.00 87 1012.0
20260906113044 23 115 0.0 0.0 0.00 0.00 0.00 87 1012.0
20260906111548 23 115 0.0 0.0 0.00 0.00 0.00 86 1011.9
20260906110041 23 115 0.0 0.0 0.00 0.00 0.00 86 1011.7
20260906104539 23 115 0.0 0.0 0.00 0.00 0.00 86 1011.5
20260906103038 23 115 0.0 0.0 0.00 0.00 0.00 85 1011.6
20260906101536 24 115 0.0 0.0 0.00 0.00 0.00 85 1011.8
20260906100041 24 115 0.0 0.0 0.00 0.00 0.00 86 1011.7
20260906094533 24 115 0.0 0.0 0.00 0.00 0.00 86 1011.7
20260906093045 24 115 0.0 0.0 0.00 0.00 0.00 85 1011.5
20260906091529 24 115 0.0 0.0 0.00 0.00 0.00 84 1011.4
20260906090027 24 115 0.0 0.0 0.00 0.00 0.00 83 1011.4
20260906084526 24 115 0.0 0.0 0.00 0.00 0.00 82 1011.3
20260906083024 25 115 0.0 0.0 0.00 0.00 0.00 81 1011.1
20260906081542 25 115 0.0 0.0 0.00 0.00 0.00 81 1010.9
20260906080021 25 115 0.0 0.0 0.00 0.00 0.00 81 1010.8
20260906074519 25 115 0.0 0.0 0.00 0.00 0.00 80 1010.8
20260906073034 25 115 0.0 0.0 0.00 0.00 0.00 79 1010.9
20260906071515 26 115 0.0 0.0 0.00 0.00 0.00 79 1011.0
20260906070015 26 115 0.0 1.6 0.00 0.00 0.00 77 1011.0
20260906064512 26 115 0.0 3.2 0.00 0.00 0.00 77 1011.1
20260906063012 26 115 0.0 1.6 0.00 0.00 0.00 76 1011.1
20260906061511 26 115 0.0 3.2 0.00 0.00 0.00 75 1011.1
20260906060011 26 115 0.0 9.7 0.00 0.00 0.00 75 1011.2
20260906054512 26 175 0.0 0.0 0.00 0.00 0.00 75 1011.0
20260906053007 26 175 0.0 0.0 0.00 0.00 0.00 74 1011.0
20260906051504 26 175 0.0 0.0 0.00 0.00 0.00 74 1010.9
20260906050002 26 175 0.0 0.0 0.00 0.00 0.00 73 1010.9
20260906044502 27 175 0.0 0.0 0.00 0.00 0.00 73 1010.8
20260906043111 27 175 0.0 0.0 0.00 0.00 0.00 72 1010.9
20260906041559 27 175 0.0 0.0 0.00 0.00 0.00 71 1011.0
20260906040115 27 175 0.0 0.0 0.00 0.00 0.00 70 1010.9
20260906034559 27 175 0.0 0.0 0.00 0.00 0.00 70 1011.0
20260906033058 27 175 0.0 1.6 0.00 0.00 0.00 70 1010.8
20260906031607 28 175 0.0 0.0 0.00 0.00 0.00 69 1010.6
20260906030107 28 175 0.0 0.0 0.00 0.00 0.00 68 1010.6
20260906024556 28 175 0.0 0.0 0.00 0.00 0.00 67 1010.6
20260906023117 28 175 0.0 0.0 0.00 0.00 0.00 66 1010.4
20260906021555 29 175 0.0 0.0 0.00 0.00 0.00 64 1010.1
20260906020055 30 175 0.0 0.0 0.00 0.00 0.00 61 1009.9
20260906014617 30 175 0.0 0.0 0.00 0.00 0.00 59 1009.9
20260906013057 31 175 0.0 0.0 0.00 0.00 0.00 56 1009.7
20260906011556 32 175 0.0 0.0 0.00 0.00 0.00 54 1009.7
20260906010052 33 175 0.0 0.0 0.00 0.00 0.00 51 1009.6
20260906004607 35 175 0.0 3.2 0.00 0.00 0.00 49 1009.6
20260906003054 36 175 0.0 3.2 0.00 0.00 0.00 44 1009.5
20260906001550 36 175 0.0 8.0 0.00 0.00 0.00 41 1009.4
20260906000059 37 163 0.0 8.0 0.00 0.00 0.00 39 1009.4
20260905234555 37 168 0.0 9.7 0.00 0.00 0.00 41 1009.4
20260905233051 37 140 3.2 8.0 0.00 0.00 0.00 40 1009.2
20260905231548 38 134 3.2 9.7 0.00 0.00 0.00 39 1009.2
20260905230048 38 175 1.6 8.0 0.00 0.00 0.00 39 1009.2
20260905224600 38 143 1.6 9.7 0.00 0.00 0.00 39 1009.2
20260905223046 38 173 1.6 12.9 0.00 0.00 0.00 39 1009.3
20260905221558 38 163 4.8 12.9 0.00 0.00 0.00 39 1009.3
20260905220016 38 129 1.6 8.0 0.00 0.00 0.00 38 1009.4
20260905214608 38 159 6.4 14.5 0.00 0.00 0.00 38 1009.6
20260905213030 38 165 3.2 11.3 0.00 0.00 0.00 39 1009.7
20260905211618 38 172 4.8 11.3 0.00 0.00 0.00 40 1010.0
20260905210040 38 195 1.6 6.4 0.00 0.00 0.00 40 1010.2
20260905204505 38 142 8.0 16.1 0.00 0.00 0.00 40 1010.4
20260905203004 38 149 8.0 14.5 0.00 0.00 0.00 42 1010.6
20260905201502 37 36 1.6 8.0 0.00 0.00 0.00 43 1010.9
20260905200059 37 130 4.8 14.5 0.00 0.00 0.00 43 1011.2
20260905194556 38 144 3.2 17.7 0.00 0.00 0.00 41 1011.5
20260905193056 38 166 3.2 9.7 0.00 0.00 0.00 41 1011.5